Location: Sternwarte-Kraichtal
(49.1689°N, 8.6996°E)
Time: 19:25:55
(UTC+02:00)

Vanguard 2 Rocket - Pass Details

Date: 29 May 2022
Orbit: 553 x 3323 km, 32.9° (Epoch: 02 July)

Event Time Altitude Azimuth Distance (km) Brightness Sun altitude
Rises 20:03:32 0° 271° (W) 6,374 12.7 9.9°
Reaches altitude 10° 20:11:07 10° 251° (WSW) 4,690 11.4 8.8°
Maximum altitude 20:16:15 14° 226° (SW) 3,869 10.5 8.0°
Drops below altitude 10° 20:20:29 10° 200° (SSW) 3,678 10.0 7.4°
Sets 20:25:00 0° 175° (S) 4,118 10.0 6.7°
